Terminal Aerodrome Forecast
Issued by NWS Green Bay, WI

Home | Current Version | Previous Version | Graphics & Text | Print | Product List | Glossary On
Versions: 1 2 3 4 5 6 7 8 9 10 11 12 13 14 15 16 17 18 19 20 21 22 23 24 25 26 27 28 29 30 31 32 33 34 35 36 37 38 39 40 41 42 43 44 45 46 47 48 49 50
714
FTUS43 KGRB 212307 AAC
TAFGRB
TAF AMD
KGRB 212307Z 2123/2218 VRB03KT 1/2SM -DZ FG OVC003
      TEMPO 2123/2202 1/4SM FG OVC002
     FM220200 22004KT 1/4SM -DZ FG OVC002
     FM221600 VRB03KT 1/2SM FG OVC003=

USA.gov is the U.S. government's official web portal to all federal, state and local government web resources and services.